[[{"header":{"parameterUnit":"m.s-1","parameterCategory":1,"la1":30.2991,"la2":30.254,"lo1":-89.0895,"lo2":-89.0444,"dy":0.0017,"dx":0.0017,"nx":28,"ny":28,"refTime":"2024-10-08T09:00:00:Z","depth":0,"parameterNumber":2,"parameterNumberName":"U-component_of_WINDS"},"data":[0,0,0,0,0,0,0,0,0,0,0,0,0,0,0,0,0,0,0,0,0,0,0,0,0,0,0,0,0,0,0,0,0,0,0,0,0,0,0,0,0,0,0,0,0,0,0,0,0,0,0,0,0,0,0,0,0,0,-1.3329,-1.333,0,-1.3372,-1.3373,-1.3373,-1.3347,-1.3346,-1.3345,-1.3344,-1.3389,-1.3391,-1.3393,0,0,0,0,0,0,0,0,0,0,0,0,0,-1.3226,-1.3228,-1.3329,-1.333,-1.333,-1.3372,-1.3373,-1.3373,-1.3347,-1.3346,-1.3344,-1.3343,-1.3388,-1.3391,-1.3393,0,0,0,0,0,0,0,0,0,0,0,0,0,-1.327,-1.3229,-1.3329,-1.3323,-1.3322,-1.3372,-1.3373,-1.3373,-1.3348,-1.3346,-1.3344,-1.3342,-1.3387,-1.339,-1.3394,-1.3453,0,0,-1.3405,-1.3406,0,0,0,0,0,0,0,0,-1.3268,-1.3274,-1.3323,-1.3323,-1.3323,-1.3352,-1.3353,-1.34,-1.3348,-1.3338,-1.3344,-1.3341,-1.3378,-1.3382,-1.3394,-1.3455,-1.3457,-1.3405,-1.3407,-1.3409,-1.341,0,0,0,0,0,0,0,-1.3265,-1.3272,-1.3346,-1.3324,-1.3324,-1.3318,-1.3322,-1.3361,-1.3368,-1.3339,-1.3337,-1.3342,-1.3378,-1.3391,-1.3395,-1.3457,-1.3405,-1.3408,-1.341,-1.3412,-1.3568,-1.357,0,0,0,0,0,0,-1.3262,-1.327,-1.3345,-1.3347,-1.329,-1.3321,-1.3326,-1.3345,-1.3368,-1.3369,-1.3344,-1.3341,-1.3386,-1.3391,-1.3397,-1.3467,-1.3409,-1.3412,-1.3414,-1.3566,-1.3569,-1.3571,0,0,0,0,0,0,-1.326,-1.3269,-1.3343,-1.3308,-1.3317,-1.3325,-1.3346,-1.3347,-1.336,-1.3371,-1.3373,-1.3356,-1.3385,-1.3392,-1.3439,-1.3469,-1.3413,-1.3417,-1.3564,-1.3567,-1.357,-1.3609,0,0,0,0,0,0,-1.3257,-1.3268,-1.3291,-1.3309,-1.3319,-1.3385,-1.3348,-1.3349,-1.3366,-1.3362,-1.3383,-1.3385,-1.3384,-1.3434,-1.3442,-1.3473,-1.3419,-1.3561,-1.3565,-1.3569,-1.3605,-1.3613,-1.362,0,0,0,0,0,-1.3253,-1.33,-1.3292,-1.3301,-1.3347,-1.3386,-1.3392,-1.339,-1.3368,-1.3391,-1.3398,-1.3384,-1.3464,-1.3439,-1.3448,-1.348,-1.3559,-1.3564,-1.3569,-1.3602,-1.3612,-1.362,0,0,0,0,0,0,-1.3286,-1.3303,-1.3294,-1.3348,-1.3366,-1.3382,-1.341,-1.34,-1.3425,-1.3421,-1.3416,-1.3421,-1.3471,-1.348,-1.3452,-1.3538,-1.3508,-1.3515,-1.353,-1.354,-1.3547,-1.3544,-1.3422,0,0,0,0,0,-1.3299,-1.333,-1.3342,-1.3389,-1.3398,-1.3403,-1.342,-1.3416,-1.3435,-1.3443,-1.3453,-1.3472,-1.3502,-1.3521,-1.3549,-1.3606,-1.3611,-1.3633,-1.364,-1.3646,-1.3652,-1.3684,-1.3694,-1.3586,-1.3586,-1.3586,0,0,-1.3328,-1.334,-1.336,-1.3396,-1.3409,-1.3441,-1.341,-1.3444,-1.3468,-1.3448,-1.3493,-1.3502,-1.3523,-1.3575,-1.3599,-1.3585,-1.3683,-1.3652,-1.3656,-1.3659,-1.3689,-1.37,-1.3709,-1.3589,-1.3589,-1.3588,0,0,-1.3395,-1.3408,-1.3448,-1.3462,-1.3483,-1.3485,-1.3495,-1.3513,-1.3517,-1.3562,-1.3548,-1.3576,-1.3627,-1.3642,-1.3657,-1.373,-1.3718,-1.3739,-1.3778,-1.3808,-1.3817,-1.3824,-1.3851,-1.386,-1.3745,-1.3745,-1.3745,0,-1.3428,-1.3475,-1.347,-1.3506,-1.3522,-1.3505,-1.3546,-1.356,-1.3589,-1.3601,-1.3584,-1.3646,-1.3659,-1.3715,-1.3733,-1.3745,-1.3757,-1.3737,-1.3816,-1.3823,-1.383,-1.3856,-1.3866,-1.3747,-1.3747,-1.3747,-1.3746,0,-1.3514,-1.3547,-1.3577,-1.3605,-1.3624,-1.3662,-1.3664,-1.3684,-1.3679,-1.3683,-1.3729,-1.3744,-1.3774,-1.3787,-1.3782,-1.3843,-1.3833,-1.3816,-1.3786,-1.3843,-1.3867,-1.3876,-1.3751,-1.375,-1.3749,-1.3748,0,0,-1.3604,-1.3629,-1.364,-1.3652,-1.3674,-1.3699,-1.3736,-1.3765,-1.3783,-1.3803,-1.3835,-1.3878,-1.3862,-1.3879,-1.3875,-1.3902,-1.396,-1.3882,-1.3882,-1.3896,-1.4028,-1.4041,-1.4052,-1.3951,-1.3953,-1.3955,-1.4026,0,-1.3674,-1.3739,-1.3735,-1.3797,-1.3827,-1.3811,-1.3843,-1.386,-1.3865,-1.3891,-1.3897,-1.3927,-1.3904,-1.3914,-1.394,-1.3947,-1.3986,-1.3942,-1.3981,-1.3983,-1.3978,-1.4065,-1.4079,-1.4146,-1.4035,-1.4037,-1.4038,0,-1.3764,-1.3787,-1.3851,-1.3868,-1.388,-1.391,-1.3936,-1.3961,-1.398,-1.3982,-1.4,-1.3992,-1.403,-1.3998,-1.4051,-1.4021,-1.4037,-1.4043,-1.4045,-1.405,-1.4015,-1.4072,-1.4167,-1.4177,-1.4053,-1.4051,-1.405,0,-1.3824,-1.3871,-1.3915,-1.3926,-1.3947,-1.3968,-1.3978,-1.3994,-1.4012,-1.4035,-1.4046,-1.4074,-1.4089,-1.411,-1.411,-1.4087,-1.4164,-1.4132,-1.4167,-1.4167,-1.4185,-1.4184,-1.4284,-1.4194,-1.4193,-1.4193,-1.4193,0,-1.3902,-1.3943,-1.3943,-1.397,-1.4015,-1.401,-1.4054,-1.4062,-1.4077,-1.4105,-1.4093,-1.412,-1.4118,-1.4145,-1.4145,-1.4189,-1.4196,-1.4199,-1.4199,-1.4201,-1.42,-1.4212,-1.4207,-1.4196,-1.4195,-1.4195,-1.4194,0,-1.3978,-1.3979,-1.4027,-1.4042,-1.4047,-1.4079,-1.4092,-1.4118,-1.4122,-1.4158,-1.4167,-1.4172,-1.4204,-1.4206,-1.4243,-1.4243,-1.4296,-1.4291,-1.429,-1.4289,-1.4324,-1.4321,-1.4436,-1.4451,-1.435,-1.4351,-1.4352,0,-1.4028,-1.4059,-1.4077,-1.4095,-1.4106,-1.4135,-1.4153,-1.415,-1.4169,-1.4192,-1.4216,-1.4246,-1.427,-1.4322,-1.433,-1.4358,-1.4354,-1.4392,-1.4358,-1.4359,-1.4355,-1.4353,-1.4357,-1.4399,-1.44,-1.4401,-1.4402,0,-1.4118,-1.4117,-1.4143,-1.4169,-1.4191,-1.4211,-1.4231,-1.4246,-1.4245,-1.4267,-1.43,-1.4318,-1.4356,-1.4387,-1.4414,-1.4424,-1.4413,-1.4412,-1.4422,-1.4424,-1.4423,-1.4425,-1.4309,-1.441,-1.4409,-1.4408,-1.4408,-1.4408,-1.4182,-1.4209,-1.4226,-1.4255,-1.4269,-1.4287,-1.4312,-1.4319,-1.4345,-1.4375,-1.4372,-1.4408,-1.4425,-1.4461,-1.4473,-1.4502,-1.4489,-1.4502,-1.4506,-1.451,-1.4514,-1.4418,-1.4507,-1.4506,-1.4506,-1.4506,-1.4506,0,-1.4272,-1.4282,-1.4309,-1.4336,-1.4359,-1.4345,-1.4366,-1.4386,-1.4418,-1.4435,-1.4459,-1.4496,-1.4526,-1.4536,-1.4565,-1.4586,-1.4581,-1.4593,-1.4592,-1.4595,-1.4524,-1.4513,-1.4596,-1.4596,-1.4596,-1.4596,-1.4596,-1.4596,-1.4321,-1.4365,-1.4366,-1.4416,-1.4426,-1.4461,-1.4474,-1.4491,-1.4504,-1.4546,-1.4571,-1.4576,-1.4591,-1.4621,-1.4647,-1.4649,-1.4661,-1.4675,-1.4676,-1.4609,-1.46,-1.4591,-1.4581,-1.4678,-1.4678,-1.4745,-1.4745,-1.4746]},{"header":{"parameterUnit":"m.s-1","parameterCategory":1,"la1":30.2991,"la2":30.254,"lo1":-89.0895,"lo2":-89.0444,"dy":0.0017,"dx":0.0017,"nx":28,"ny":28,"refTime":"2024-10-08T09:00:00:Z","depth":0,"parameterNumber":3,"parameterNumberName":"V-component_of_WINDS"},"data":[0,0,0,0,0,0,0,0,0,0,0,0,0,0,0,0,0,0,0,0,0,0,0,0,0,0,0,0,0,0,0,0,0,0,0,0,0,0,0,0,0,0,0,0,0,0,0,0,0,0,0,0,0,0,0,0,0,0,-4.0486,-4.0486,0,-4.0505,-4.0505,-4.0506,-4.047,-4.0469,-4.0468,-4.0467,-4.0485,-4.0486,-4.0488,0,0,0,0,0,0,0,0,0,0,0,0,0,-4.0417,-4.0418,-4.0486,-4.0486,-4.0486,-4.0505,-4.0505,-4.0506,-4.0471,-4.0469,-4.0468,-4.0466,-4.0484,-4.0486,-4.0488,0,0,0,0,0,0,0,0,0,0,0,0,0,-4.0442,-4.0418,-4.0486,-4.0471,-4.047,-4.0505,-4.0505,-4.0506,-4.0471,-4.0469,-4.0467,-4.0466,-4.0484,-4.0486,-4.0488,-4.0538,0,0,-4.0495,-4.0496,0,0,0,0,0,0,0,0,-4.0441,-4.0445,-4.0473,-4.0472,-4.0471,-4.0484,-4.0488,-4.0516,-4.0471,-4.047,-4.0467,-4.0465,-4.0486,-4.0488,-4.0495,-4.0539,-4.0539,-4.0496,-4.0497,-4.0498,-4.0499,0,0,0,0,0,0,0,-4.0439,-4.0444,-4.0493,-4.0473,-4.0472,-4.0463,-4.0465,-4.0493,-4.0488,-4.047,-4.0468,-4.0471,-4.0485,-4.0493,-4.0495,-4.054,-4.0496,-4.0498,-4.0499,-4.05,-4.0626,-4.0628,0,0,0,0,0,0,-4.0439,-4.0443,-4.0493,-4.0494,-4.0451,-4.0466,-4.0468,-4.0481,-4.0487,-4.0486,-4.0472,-4.0469,-4.049,-4.0493,-4.0496,-4.0555,-4.0498,-4.05,-4.0502,-4.0624,-4.0627,-4.0629,0,0,0,0,0,0,-4.0438,-4.0444,-4.0492,-4.0468,-4.0473,-4.0469,-4.0484,-4.0483,-4.0491,-4.0489,-4.0487,-4.0482,-4.0489,-4.0492,-4.0528,-4.0555,-4.0501,-4.0503,-4.0622,-4.0625,-4.0628,-4.0673,0,0,0,0,0,0,-4.0436,-4.0444,-4.0463,-4.0468,-4.0474,-4.0524,-4.0486,-4.0484,-4.0495,-4.0491,-4.0497,-4.0496,-4.0487,-4.0525,-4.053,-4.0557,-4.0505,-4.0619,-4.0623,-4.0627,-4.0669,-4.0677,-4.0684,0,0,0,0,0,-4.0434,-4.0474,-4.0464,-4.047,-4.0498,-4.0526,-4.0529,-4.0519,-4.0497,-4.0516,-4.0515,-4.0496,-4.0551,-4.0529,-4.0535,-4.0563,-4.0618,-4.0622,-4.0626,-4.0666,-4.0676,-4.0684,0,0,0,0,0,0,-4.0471,-4.0475,-4.0463,-4.0507,-4.0517,-4.052,-4.0543,-4.0529,-4.0544,-4.054,-4.0526,-4.0527,-4.0566,-4.0568,-4.0543,-4.0612,-4.0581,-4.0587,-4.0609,-4.0618,-4.0625,-4.0624,-4.0507,0,0,0,0,0,-4.0484,-4.0507,-4.0509,-4.0547,-4.0553,-4.0548,-4.0559,-4.055,-4.0559,-4.0563,-4.0564,-4.0573,-4.0593,-4.0605,-4.0623,-4.067,-4.0671,-4.0692,-4.0699,-4.0706,-4.0711,-4.0736,-4.0746,-4.0643,-4.0643,-4.0643,0,0,-4.0512,-4.0517,-4.0532,-4.0555,-4.0561,-4.0585,-4.0551,-4.0577,-4.0594,-4.0566,-4.06,-4.0602,-4.0611,-4.0653,-4.0671,-4.0656,-4.0739,-4.0711,-4.0716,-4.0718,-4.0741,-4.0751,-4.076,-4.0646,-4.0645,-4.0645,0,0,-4.0574,-4.058,-4.0613,-4.062,-4.0631,-4.0628,-4.0636,-4.0642,-4.0642,-4.0676,-4.0656,-4.0677,-4.071,-4.0718,-4.0726,-4.0793,-4.0776,-4.0799,-4.0838,-4.0863,-4.0871,-4.0878,-4.0902,-4.0911,-4.0804,-4.0805,-4.0805,0,-4.0606,-4.0642,-4.0631,-4.0659,-4.067,-4.0648,-4.0681,-4.0688,-4.0704,-4.0712,-4.0695,-4.0737,-4.0742,-4.0785,-4.0802,-4.0809,-4.0818,-4.0798,-4.0871,-4.0878,-4.0884,-4.0907,-4.0916,-4.0807,-4.0807,-4.0807,-4.0806,0,-4.0681,-4.0706,-4.0731,-4.0748,-4.0762,-4.0792,-4.0786,-4.0801,-4.0792,-4.0791,-4.0826,-4.0831,-4.085,-4.086,-4.085,-4.0902,-4.0892,-4.0873,-4.0842,-4.0897,-4.0918,-4.0927,-4.0811,-4.081,-4.0809,-4.0809,0,0,-4.0765,-4.0778,-4.0787,-4.0795,-4.0806,-4.0825,-4.0855,-4.0874,-4.0887,-4.0899,-4.0924,-4.0954,-4.0937,-4.0946,-4.0938,-4.096,-4.1013,-4.0938,-4.0938,-4.0952,-4.1071,-4.1085,-4.1095,-4.1003,-4.1004,-4.1006,-4.107,0,-4.0827,-4.0879,-4.0871,-4.0921,-4.0944,-4.0924,-4.095,-4.096,-4.096,-4.0979,-4.0978,-4.1,-4.0976,-4.0981,-4.1002,-4.1002,-4.1037,-4.0998,-4.1025,-4.1026,-4.1023,-4.1106,-4.1121,-4.1182,-4.1079,-4.108,-4.1081,0,-4.0905,-4.0922,-4.0975,-4.0983,-4.0993,-4.1016,-4.1034,-4.1053,-4.1064,-4.1062,-4.1074,-4.1061,-4.1091,-4.106,-4.1101,-4.1075,-4.1086,-4.1087,-4.1089,-4.1091,-4.1056,-4.111,-4.1201,-4.121,-4.1094,-4.1093,-4.1092,0,-4.0962,-4.0997,-4.1033,-4.1041,-4.1052,-4.1069,-4.1074,-4.1083,-4.1096,-4.1111,-4.1119,-4.1138,-4.1148,-4.1163,-4.1156,-4.1134,-4.1198,-4.1166,-4.1197,-4.1198,-4.1211,-4.121,-4.1304,-4.1219,-4.1219,-4.1219,-4.1218,0,-4.1031,-4.1064,-4.1059,-4.1081,-4.1118,-4.1109,-4.1145,-4.1148,-4.1156,-4.1179,-4.1162,-4.1184,-4.1174,-4.1194,-4.1189,-4.1224,-4.1229,-4.1228,-4.1226,-4.1229,-4.1229,-4.1236,-4.1231,-4.1221,-4.122,-4.122,-4.122,0,-4.1099,-4.1097,-4.1135,-4.1144,-4.1147,-4.1173,-4.118,-4.1201,-4.12,-4.1229,-4.1235,-4.1233,-4.1257,-4.1252,-4.1278,-4.1274,-4.1318,-4.1311,-4.1315,-4.1313,-4.1344,-4.1341,-4.1445,-4.1459,-4.1365,-4.1366,-4.1367,0,-4.1143,-4.1168,-4.118,-4.1194,-4.1201,-4.1225,-4.1238,-4.1231,-4.1245,-4.126,-4.1279,-4.1302,-4.1319,-4.1358,-4.1359,-4.1378,-4.1372,-4.1407,-4.1374,-4.1377,-4.1372,-4.137,-4.1373,-4.1413,-4.1414,-4.1415,-4.1416,0,-4.1222,-4.122,-4.124,-4.1261,-4.1278,-4.1293,-4.1307,-4.1319,-4.1313,-4.133,-4.1355,-4.1369,-4.1396,-4.1418,-4.1437,-4.1442,-4.1428,-4.1426,-4.1434,-4.1437,-4.1438,-4.1438,-4.1332,-4.1423,-4.1423,-4.1422,-4.1422,-4.1421,-4.1279,-4.1301,-4.1313,-4.1336,-4.1346,-4.136,-4.1381,-4.1383,-4.1404,-4.1426,-4.142,-4.1448,-4.1459,-4.1483,-4.1491,-4.1512,-4.1499,-4.1511,-4.1514,-4.1517,-4.1521,-4.1436,-4.1516,-4.1516,-4.1515,-4.1515,-4.1515,0,-4.1356,-4.1364,-4.1386,-4.1406,-4.1425,-4.1412,-4.1427,-4.1443,-4.1468,-4.148,-4.1498,-4.1527,-4.1549,-4.1553,-4.1574,-4.1591,-4.1585,-4.1596,-4.1595,-4.1596,-4.1531,-4.1522,-4.1601,-4.1601,-4.1601,-4.1601,-4.1601,-4.1601,-4.1399,-4.1435,-4.1435,-4.1477,-4.1484,-4.1512,-4.1522,-4.1534,-4.1544,-4.1577,-4.1596,-4.1599,-4.1608,-4.163,-4.165,-4.165,-4.1658,-4.1672,-4.1671,-4.1609,-4.1601,-4.1593,-4.1584,-4.1674,-4.1675,-4.1734,-4.1734,-4.1735]}]]